Sigfox identifier Datetime Temperature Humidity SNR
003A7976 2019-02-20 14:08:19 20.9 24 23.4
003A7976 2019-02-20 13:37:15 20.9 25 23.5
003A7976 2019-02-20 13:06:11 20.9 25 23.5
003A7976 2019-02-20 12:35:07 20.9 26 22.8
003A7976 2019-02-20 12:04:02 20.8 26 22.8
003A7976 2019-02-20 11:32:57 20.8 26 21.8
003A7976 2019-02-20 11:01:53 20.8 26 20.5
003A7976 2019-02-20 10:30:48 20.8 26 20.6
003A7976 2019-02-20 09:59:43 20.8 26 20.7
003A7976 2019-02-20 09:28:38 20.8 26 20.9
003A7976 2019-02-20 08:57:33 20.8 26 19.3
003A7976 2019-02-20 08:26:33 20.8 26 19.3
003A7976 2019-02-20 07:55:23 20.8 26 19.2
003A7976 2019-02-20 07:23:38 20.8 26 19.1
003A7976 2019-02-20 06:52:32 20.8 26 19
003A7976 2019-02-20 06:21:27 20.8 26 18.8
003A7976 2019-02-20 05:50:22 20.9 26 18.9
003A7976 2019-02-20 05:19:17 20.9 26 18.7
003A7976 2019-02-20 04:48:12 20.9 26 18.6
003A7976 2019-02-20 04:17:09 20.9 26 18.3
003A7976 2019-02-20 03:46:03 20.9 26 18
003A7976 2019-02-20 03:14:59 20.9 26 17.7
003A7976 2019-02-20 02:43:54 20.9 26 17.6
003A7976 2019-02-20 02:12:50 20.9 26 19.8
003A7976 2019-02-20 01:41:46 20.9 26 19.5
003A7976 2019-02-20 01:10:42 21 26 19.5
003A7976 2019-02-20 00:39:39 21 26 19.3
003A7976 2019-02-20 00:08:35 21 26 19.3
003A7976 2019-02-19 23:37:31 21 26 19.1
003A7976 2019-02-19 23:06:27 21 26 18.9
003A7976 2019-02-19 22:35:22 21 26 18.9
003A7976 2019-02-19 22:04:18 21 26 18.8
003A7976 2019-02-19 21:33:16 21 26 18.5
003A7976 2019-02-19 21:02:08 21.1 26 18.2
003A7976 2019-02-19 20:31:04 21.1 26 18
003A7976 2019-02-19 20:00:00 21.1 26 17.7
003A7976 2019-02-19 19:28:55 21.1 26 17.5
003A7976 2019-02-19 18:57:50 21.1 26 17.2
003A7976 2019-02-19 18:26:46 21.1 26 17.1
003A7976 2019-02-19 17:55:42 21.1 26 17.2
003A7976 2019-02-19 17:24:39 21.1 26 17.2
003A7976 2019-02-19 16:53:33 21.1 26 17.2
003A7976 2019-02-19 16:22:29 21.1 26 17.2
003A7976 2019-02-19 15:51:24 21.1 26 17.2
003A7976 2019-02-19 15:20:21 21.1 26 17.2
003A7976 2019-02-19 14:49:16 21.1 26 17.2
003A7976 2019-02-19 13:47:07 21.1 26 17.3
003A7976 2019-02-19 11:42:55 21 25 17.2
003A7976 2019-02-19 10:40:46 20.9 25 17.2
003A7976 2019-02-19 10:09:43 20.9 25 17.2
003A7976 2019-02-19 09:38:40 20.9 24 17.2
003A7976 2019-02-19 09:07:41 20.9 24 17.3
003A7976 2019-02-19 08:05:32 20.9 24 17.3
003A7976 2019-02-19 07:34:26 20.9 24 17.3
003A7976 2019-02-19 07:03:22 20.9 24 17.4
003A7976 2019-02-19 06:32:22 20.9 24 19.8
003A7976 2019-02-19 06:01:16 20.9 24 21.3
003A7976 2019-02-19 05:29:32 20.9 23 21.3
003A7976 2019-02-19 04:58:23 20.9 23 21.3
003A7976 2019-02-19 04:27:22 20.9 23 21.3
003A7976 2019-02-19 03:56:13 20.9 23 21.5
003A7976 2019-02-19 03:25:08 20.9 23 21.6
003A7976 2019-02-19 02:23:00 20.9 23 21.6
003A7976 2019-02-19 01:51:56 20.9 23 21.7
003A7976 2019-02-19 01:20:52 20.9 23 21.7
003A7976 2019-02-19 00:49:48 20.9 23 21.8
003A7976 2019-02-19 00:18:47 20.9 22 21.9
003A7976 2019-02-18 23:47:40 20.9 22 22
003A7976 2019-02-18 23:16:33 20.9 22 22
003A7976 2019-02-18 22:45:32 20.9 22 22.1
003A7976 2019-02-18 22:14:27 20.9 22 22.3
003A7976 2019-02-18 21:43:20 21 22 22.4
003A7976 2019-02-18 21:12:15 20.9 22 22.5
003A7976 2019-02-18 20:41:11 21 22 21.6
003A7976 2019-02-18 20:10:08 20.9 22 21.7
003A7976 2019-02-18 19:39:04 21 22 21.9
003A7976 2019-02-18 19:08:01 21 22 22
003A7976 2019-02-18 18:36:53 21 21 23
003A7976 2019-02-18 16:32:40 21.1 21 23.2
003A7976 2019-02-18 16:01:32 21.1 21 23.2
003A7976 2019-02-18 15:30:31 21.1 21 22.4
003A7976 2019-02-18 14:59:21 21.2 21 21.6
003A7976 2019-02-18 14:28:16 21.2 21 21.7
003A7976 2019-02-18 13:57:11 21.2 20 21.9
003A7976 2019-02-18 13:26:07 21.3 20 22.1
003A7976 2019-02-18 12:55:06 21.3 20 22.1
003A7976 2019-02-18 12:23:59 21.3 20 22.2
003A7976 2019-02-18 11:52:54 21.3 20 22.3
003A7976 2019-02-18 11:21:49 21.2 20 22.3
003A7976 2019-02-18 10:50:46 21.2 20 22.5
003A7976 2019-02-18 10:19:42 21.1 20 22.4
003A7976 2019-02-18 09:48:37 21.1 20 22.5
003A7976 2019-02-18 09:17:34 21.1 20 22.5
003A7976 2019-02-18 08:46:30 21 19 22.7
003A7976 2019-02-18 08:15:25 21 19 22.7
003A7976 2019-02-18 07:44:20 21 19 22.6
003A7976 2019-02-18 07:13:13 21 19 22.7
003A7976 2019-02-18 06:42:06 21 20 22.7
003A7976 2019-02-18 06:11:00 21 20 22.7
003A7976 2019-02-18 05:39:55 21 20 22.7
003A7976 2019-02-18 05:08:51 21 20 22.7
003A7976 2019-02-18 04:37:46 21 20 22.7
003A7976 2019-02-18 04:06:41 21 20 21.9
003A7976 2019-02-18 03:34:55 21.1 20 21.8
003A7976 2019-02-18 03:03:50 21.1 20 21.8
003A7976 2019-02-18 02:32:44 21.1 20 21.9
003A7976 2019-02-18 02:01:39 21.1 20 21.9
003A7976 2019-02-18 01:30:34 21.1 20 22
003A7976 2019-02-18 00:59:28 21.1 20 22.1
003A7976 2019-02-18 00:28:22 21.1 20 22
003A7976 2019-02-17 23:57:18 21.1 20 21.9
003A7976 2019-02-17 23:26:13 21.1 20 21.9
003A7976 2019-02-17 22:55:08 21.1 21 21.8
003A7976 2019-02-17 22:24:04 21.1 21 22
003A7976 2019-02-17 21:53:00 21.1 21 22
003A7976 2019-02-17 21:21:56 21.1 21 22.2
003A7976 2019-02-17 20:50:52 21.1 21 22.2
003A7976 2019-02-17 20:19:46 21.1 21 22.2
003A7976 2019-02-17 19:48:41 21.1 21 22.2
003A7976 2019-02-17 19:17:37 21.2 21 22.3
003A7976 2019-02-17 18:46:31 21.2 21 22.3
003A7976 2019-02-17 18:15:26 21.2 21 22.3
003A7976 2019-02-17 17:44:21 21.2 21 22.3
003A7976 2019-02-17 17:13:14 21.2 21 22.3
003A7976 2019-02-17 16:42:08 21.2 21 22.4
003A7976 2019-02-17 16:11:03 21.2 21 22.4
003A7976 2019-02-17 15:39:59 21.2 22 22.5
003A7976 2019-02-17 15:08:56 21.2 22 22.5
003A7976 2019-02-17 14:37:52 21.2 22 22.5
003A7976 2019-02-17 14:06:48 21.2 22 22.6
003A7976 2019-02-17 13:35:44 21.2 22 22.6
003A7976 2019-02-17 13:04:40 21.2 22 22.6
003A7976 2019-02-17 12:33:37 21.1 22 22.5
003A7976 2019-02-17 12:02:33 21.2 22 22.4
003A7976 2019-02-17 11:31:30 21.1 22 22.4
003A7976 2019-02-17 11:00:25 21.1 22 22.5
003A7976 2019-02-17 10:29:21 21.1 23 23.3
003A7976 2019-02-17 09:58:17 21.1 23 23.3
003A7976 2019-02-17 09:27:12 21.2 23 23.2
003A7976 2019-02-17 08:56:08 21.2 23 23.2
003A7976 2019-02-17 08:25:03 21.2 23 23.2
003A7976 2019-02-17 07:53:58 21.2 23 23.1
003A7976 2019-02-17 07:22:54 21.2 23 23.2
003A7976 2019-02-17 06:51:51 21.2 23 23.8
003A7976 2019-02-17 06:20:47 21.2 23 23.8
003A7976 2019-02-17 05:49:42 21.2 24 23.8
003A7976 2019-02-17 05:18:38 21.2 24 23.8
003A7976 2019-02-17 04:47:35 21.2 24 23.8
003A7976 2019-02-17 04:16:31 21.2 24 23.8
003A7976 2019-02-17 03:45:26 21.2 24 23.9
003A7976 2019-02-17 03:14:19 21.2 24 23.8
003A7976 2019-02-17 02:43:13 21.2 24 23.8
003A7976 2019-02-17 02:12:07 21.2 24 23.8
003A7976 2019-02-17 01:40:21 21.2 24 23.8
003A7976 2019-02-17 01:09:13 21.3 25 23.7
003A7976 2019-02-17 00:38:09 21.2 25 23.7
003A7976 2019-02-17 00:07:04 21.3 25 23.8
003A7976 2019-02-16 23:36:00 21.3 25 23.7
003A7976 2019-02-16 23:04:55 21.3 25 23.8
003A7976 2019-02-16 22:33:51 21.3 25 23.8
003A7976 2019-02-16 22:02:46 21.3 25 23.7
003A7976 2019-02-16 21:31:42 21.3 25 23.1
003A7976 2019-02-16 21:00:38 21.3 25 23.1
003A7976 2019-02-16 20:29:34 21.3 25 23.1
003A7976 2019-02-16 19:58:30 21.3 25 23.1
003A7976 2019-02-16 19:27:26 21.3 25 23.1
003A7976 2019-02-16 18:56:22 21.3 25 23.1
003A7976 2019-02-16 18:25:20 21.3 25 23.1
003A7976 2019-02-16 17:54:17 21.4 25 22.3
003A7976 2019-02-16 17:23:13 21.4 25 22.3
003A7976 2019-02-16 16:52:09 21.4 25 22.2
003A7976 2019-02-16 16:21:04 21.4 25 22.2
003A7976 2019-02-16 15:50:01 21.4 25 22.1
003A7976 2019-02-16 15:18:58 21.4 25 22.1
003A7976 2019-02-16 14:47:54 21.4 25 22.1
003A7976 2019-02-16 14:16:52 21.3 25 22
003A7976 2019-02-16 13:45:47 21.3 25 22
003A7976 2019-02-16 13:14:44 21.3 25 21.9
003A7976 2019-02-16 12:43:41 21.3 25 21.9
003A7976 2019-02-16 12:12:37 21.3 25 21.9
003A7976 2019-02-16 11:41:33 21.3 25 21.9
003A7976 2019-02-16 11:10:30 21.3 25 22.8
003A7976 2019-02-16 10:39:26 21.3 25 22.7
003A7976 2019-02-16 10:08:21 21.3 25 22.7
003A7976 2019-02-16 09:37:18 21.3 25 22.7
003A7976 2019-02-16 09:06:15 21.3 25 22.8
003A7976 2019-02-16 08:35:12 21.3 25 22.8
003A7976 2019-02-16 08:04:09 21.3 25 22.8
003A7976 2019-02-16 07:33:05 21.3 25 22.8
003A7976 2019-02-16 07:02:00 21.3 25 22.9
003A7976 2019-02-16 06:30:56 21.3 25 22.9
003A7976 2019-02-16 05:59:51 21.4 25 22.9
003A7976 2019-02-16 05:28:47 21.3 25 22.9
003A7976 2019-02-16 04:57:43 21.3 25 22.8
003A7976 2019-02-16 04:26:40 21.3 25 22.7
003A7976 2019-02-16 03:55:36 21.3 25 22.7
003A7976 2019-02-16 03:24:31 21.3 25 22.7
003A7976 2019-02-16 02:53:28 21.4 25 22.8
003A7976 2019-02-16 02:22:25 21.4 25 22.7
003A7976 2019-02-16 01:51:22 21.4 25 22.8
003A7976 2019-02-16 01:20:18 21.4 25 22.7
003A7976 2019-02-16 00:49:14 21.5 25 22.8
003A7976 2019-02-16 00:18:10 21.5 25 22.7
003A7976 2019-02-15 23:46:24 21.5 25 22.7
003A7976 2019-02-15 23:15:19 21.6 25 22.7
003A7976 2019-02-15 22:44:16 21.6 25 22.5
003A7976 2019-02-15 22:13:12 21.6 25 21.5
003A7976 2019-02-15 21:42:08 21.6 25 21.5
003A7976 2019-02-15 21:11:03 21.6 25 21.3
003A7976 2019-02-15 20:39:59 21.7 25 21.3
003A7976 2019-02-15 20:08:55 21.7 25 21.2
003A7976 2019-02-15 19:37:50 21.7 25 21.2
003A7976 2019-02-15 19:06:47 21.7 25 21.2
003A7976 2019-02-15 18:35:42 21.7 25 21.2
003A7976 2019-02-15 18:04:37 21.7 25 21.1
003A7976 2019-02-15 17:33:33 21.7 25 21.1
003A7976 2019-02-15 17:02:28 21.7 25 21.1
003A7976 2019-02-15 16:31:23 21.7 24 21
003A7976 2019-02-15 16:00:19 21.7 24 21
003A7976 2019-02-15 15:29:14 21.6 24 21.1
003A7976 2019-02-15 14:58:09 21.6 24 21.1
003A7976 2019-02-15 14:27:05 21.6 24 21.1
003A7976 2019-02-15 13:56:02 21.6 24 20.9
003A7976 2019-02-15 13:24:58 21.6 24 21
003A7976 2019-02-15 12:53:53 21.6 25 21
003A7976 2019-02-15 12:22:48 21.5 25 21.2
003A7976 2019-02-15 11:51:44 21.5 25 21.1
003A7976 2019-02-15 11:20:38 21.5 25 21.1
003A7976 2019-02-15 10:49:34 21.5 25 21.1
003A7976 2019-02-15 10:18:29 21.5 25 21.2
003A7976 2019-02-15 09:47:24 21.4 25 21.3
003A7976 2019-02-15 09:16:20 21.4 25 21.4
003A7976 2019-02-15 08:45:17 21.4 25 21.4
003A7976 2019-02-15 08:14:12 21.4 25 21.6
003A7976 2019-02-15 07:43:08 21.4 25 21.6
003A7976 2019-02-15 07:12:03 21.4 25 21.5
003A7976 2019-02-15 06:40:57 21.4 25 21.4
003A7976 2019-02-15 06:09:52 21.4 25 21.4
003A7976 2019-02-15 05:38:47 21.4 25 21.4
003A7976 2019-02-15 05:07:42 21.4 25 22.3
003A7976 2019-02-15 04:36:37 21.4 25 22.4
003A7976 2019-02-15 04:05:32 21.5 25 22.5
003A7976 2019-02-15 03:34:27 21.5 25 22.4
003A7976 2019-02-15 03:03:24 21.5 25 22.3
003A7976 2019-02-15 02:32:21 21.5 25 22.4
003A7976 2019-02-15 02:01:17 21.5 25 22.5
003A7976 2019-02-15 01:30:14 21.5 25 22.5
003A7976 2019-02-15 00:59:11 21.6 25 22.6
003A7976 2019-02-15 00:28:06 21.6 25 22.6
003A7976 2019-02-14 23:57:03 21.6 25 22.6
003A7976 2019-02-14 23:26:00 21.6 25 22.5
003A7976 2019-02-14 22:54:56 21.6 25 22.5
003A7976 2019-02-14 22:23:52 21.6 24 22.6
003A7976 2019-02-14 21:52:06 21.6 24 22.6
003A7976 2019-02-14 21:21:02 21.7 24 22.5
003A7976 2019-02-14 20:49:58 21.7 24 22.5
003A7976 2019-02-14 20:18:53 21.7 24 22.6
003A7976 2019-02-14 19:47:48 21.8 24 22.8
003A7976 2019-02-14 19:16:44 21.8 24 22.9
003A7976 2019-02-14 18:45:40 21.8 24 23
003A7976 2019-02-14 18:14:36 21.8 24 23
003A7976 2019-02-14 17:43:33 21.8 24 23.2
003A7976 2019-02-14 17:12:31 21.9 24 23.3
003A7976 2019-02-14 16:41:25 21.9 24 23.4
003A7976 2019-02-14 16:10:21 21.9 24 22.9
003A7976 2019-02-14 15:39:16 21.9 24 23
003A7976 2019-02-14 15:08:11 21.9 24 23
003A7976 2019-02-14 14:37:06 21.9 24 23.2
003A7976 2019-02-14 14:06:01 21.8 23 23.4
003A7976 2019-02-14 13:34:55 21.8 23 23.4
003A7976 2019-02-14 13:03:50 21.7 23 23.5
003A7976 2019-02-14 12:32:45 21.6 22 23.6
003A7976 2019-02-14 12:01:40 21.5 23 23.6
003A7976 2019-02-14 11:30:36 21.4 23 23.7
003A7976 2019-02-14 10:59:32 21.3 23 23.8
003A7976 2019-02-14 10:28:28 21.1 24 23.9
003A7976 2019-02-14 09:57:25 21 23 23.9
003A7976 2019-02-14 09:26:21 21 23 23.9
003A7976 2019-02-14 08:55:18 20.9 23 24
003A7976 2019-02-14 08:24:15 20.9 24 24
003A7976 2019-02-14 07:53:11 20.9 24 24
003A7976 2019-02-14 07:22:08 20.9 25 24
003A7976 2019-02-14 06:51:03 20.9 25 24.4
003A7976 2019-02-14 06:20:00 20.9 25 24.3
003A7976 2019-02-14 05:48:55 21 25 24.2
003A7976 2019-02-14 05:17:50 21 26 24.1
003A7976 2019-02-14 04:46:46 21 26 24
003A7976 2019-02-14 04:15:42 21 25 24.4
003A7976 2019-02-14 03:44:36 21 25 24.3
003A7976 2019-02-14 03:13:31 20.9 25 24.1
003A7976 2019-02-14 02:42:26 21 25 23.9
003A7976 2019-02-14 02:11:21 21 25 23.8
003A7976 2019-02-14 01:40:15 21 25 23.6
003A7976 2019-02-14 01:09:12 21 25 23.6
003A7976 2019-02-14 00:38:09 21 25 23.4
003A7976 2019-02-14 00:07:06 21 25 23.3
003A7976 2019-02-13 23:36:01 21 25 23.2
003A7976 2019-02-13 23:04:59 21.1 25 23
003A7976 2019-02-13 22:33:54 21.1 25 22.8
003A7976 2019-02-13 22:02:49 21.2 25 22.7
003A7976 2019-02-13 21:31:44 21.2 25 22.6
003A7976 2019-02-13 21:00:41 21.3 25 22.5
003A7976 2019-02-13 20:29:36 21.4 25 22.6
003A7976 2019-02-13 19:57:50 21.4 25 22.6
003A7976 2019-02-13 19:26:46 21.5 25 22.6
003A7976 2019-02-13 18:55:42 21.6 25 22.6
003A7976 2019-02-13 18:24:37 21.7 25 22.6
003A7976 2019-02-13 17:53:33 21.8 26 21.8
003A7976 2019-02-13 17:22:28 21.7 26 21.9
003A7976 2019-02-13 16:51:25 21.6 27 22
003A7976 2019-02-13 16:20:21 21.6 26 22.1
003A7976 2019-02-13 15:49:17 21.4 26 22.3
003A7976 2019-02-13 15:18:13 21.3 26 21.3
003A7976 2019-02-13 14:47:11 21.2 25 21.5
003A7976 2019-02-13 14:16:09 21.2 25 21.6
003A7976 2019-02-13 13:45:06 21.3 24 21.8
003A7976 2019-02-13 13:14:02 21.4 24 21.8
003A7976 2019-02-13 12:42:57 21.4 25 22
003A7976 2019-02-13 12:11:54 21.4 24 22
003A7976 2019-02-13 11:40:50 21.3 25 22.1
003A7976 2019-02-13 11:09:46 21.1 25 22.2
003A7976 2019-02-13 10:38:42 20.9 25 22.5
003A7976 2019-02-13 10:07:38 20.9 24 22.7
003A7976 2019-02-13 09:36:34 21 23 22.8
003A7976 2019-02-13 09:05:31 20.9 22 22.8
003A7976 2019-02-13 08:34:26 20.9 22 22.8
003A7976 2019-02-13 08:03:20 20.9 21 22.8
003A7976 2019-02-13 07:32:17 20.9 20 22.8
003A7976 2019-02-13 07:01:14 20.9 19 22.7
003A7976 2019-02-13 06:30:10 20.9 18 22.7
003A7976 2019-02-13 05:59:06 20.9 18 22.6
003A7976 2019-02-13 05:28:02 20.9 19 22.5
003A7976 2019-02-13 04:56:58 20.9 19 22.5
003A7976 2019-02-13 04:25:53 21 18 22.4
003A7976 2019-02-13 03:54:50 21 18 22.3
003A7976 2019-02-13 03:23:44 21 18 22.4
003A7976 2019-02-13 02:52:38 21 18 22.3
003A7976 2019-02-13 02:21:32 21 18 22.3
003A7976 2019-02-13 01:50:27 21 18 22.1
003A7976 2019-02-13 01:19:21 21 17 22
003A7976 2019-02-13 00:48:16 21 17 22
003A7976 2019-02-13 00:17:11 21.1 18 22
003A7976 2019-02-12 23:46:06 21.1 19 22
003A7976 2019-02-12 23:15:03 21.1 19 22.1
003A7976 2019-02-12 22:43:58 21.1 18 22
003A7976 2019-02-12 22:12:54 21.2 18 22.1
003A7976 2019-02-12 21:41:48 21.2 19 22
003A7976 2019-02-12 21:10:42 21.3 21 21.9
003A7976 2019-02-12 20:39:37 21.4 21 21.8
003A7976 2019-02-12 20:08:32 21.4 20 21.8
003A7976 2019-02-12 19:37:26 21.4 20 21.9
003A7976 2019-02-12 19:06:21 21.3 20 21.8
003A7976 2019-02-12 18:35:16 21.3 19 21.9
003A7976 2019-02-12 18:03:31 21.3 18 21.8
003A7976 2019-02-12 17:32:28 21.4 18 21.8
003A7976 2019-02-12 17:01:24 21.5 18 21.9
003A7976 2019-02-12 16:30:21 21.6 18 22
003A7976 2019-02-12 15:59:17 21.6 18 21.9
003A7976 2019-02-12 15:28:15 21.6 18 22.2
003A7976 2019-02-12 14:57:12 21.5 18 22.3
003A7976 2019-02-12 14:26:09 21.4 19 22.5
003A7976 2019-02-12 13:55:06 21.3 18 22.6
003A7976 2019-02-12 13:24:03 21.4 18 22.7
003A7976 2019-02-12 12:52:59 21.5 18 22.8
003A7976 2019-02-12 12:21:55 21.5 18 22.8
003A7976 2019-02-12 11:50:50 21.5 18 22.8
003A7976 2019-02-12 11:19:46 21.5 18 22.8
003A7976 2019-02-12 10:48:42 21.4 19 22.8
003A7976 2019-02-12 10:17:39 21.3 20 22.7
003A7976 2019-02-12 09:46:35 21.2 20 22.8
003A7976 2019-02-12 09:15:32 21.1 21 22.7
003A7976 2019-02-12 08:44:29 21 23 22.6
003A7976 2019-02-12 08:13:24 21 22 22.7
003A7976 2019-02-12 07:42:18 20.9 23 22.7
003A7976 2019-02-12 07:11:13 20.9 25 22.7
003A7976 2019-02-12 06:40:05 21 26 22.8
003A7976 2019-02-12 06:08:59 21 26 22.8
003A7976 2019-02-12 05:37:53 21 26 22.7
003A7976 2019-02-12 05:06:48 21 26 22.8
003A7976 2019-02-12 04:35:44 21 26 22.8
003A7976 2019-02-12 04:04:41 21 26 22.9
003A7976 2019-02-12 03:33:36 21 27 22.9
003A7976 2019-02-12 03:02:31 21 27 23
003A7976 2019-02-12 02:31:25 21 27 22.8
003A7976 2019-02-12 02:00:19 21 27 22.7
003A7976 2019-02-12 01:29:13 21 27 22.5
003A7976 2019-02-12 00:58:09 21.1 27 22.3
003A7976 2019-02-12 00:27:05 21.1 27 22.1
003A7976 2019-02-11 23:56:01 21.1 27 22.4
003A7976 2019-02-11 23:24:57 21.2 27 22.4
003A7976 2019-02-11 22:53:52 21.2 27 22.3
003A7976 2019-02-11 22:22:47 21.2 27 22.4
003A7976 2019-02-11 21:51:42 21.3 27 22.3
003A7976 2019-02-11 21:20:36 21.4 27 22.3
003A7976 2019-02-11 20:49:31 21.5 27 22.1
003A7976 2019-02-11 20:18:26 21.6 27 22.3
003A7976 2019-02-11 19:47:21 21.7 27 22.4
003A7976 2019-02-11 19:16:15 21.8 27 21.7
003A7976 2019-02-11 18:45:10 22 26 21.5
003A7976 2019-02-11 18:14:04 22.2 26 22.2
003A7976 2019-02-11 17:42:59 22.3 27 21.5
003A7976 2019-02-11 17:11:54 22.3 27 19.7
003A7976 2019-02-11 16:40:47 22.3 30 0